Content
SEND FEEDBACK

Daily
Averages
Monthly
Summary
Kazakhstan

PAVLODAR, KAZAKHSTAN


Home > Asia > Kazakhstan
Elevation: 479 feet     Latitude: 52 17N     Longitude: 076 57E

WEATHER
 
SELECT A DAY
Number of Records: 87,944;   Date Range: 6/20/04 - 12/20/14
 
SHARE

PRINT THIS DATA

[ ← Previous Day ]
WEATHER ALMANAC - JANUARY 31, 2013
[ Next Day → ]
[ °C ]   °F
Weather ElementAverageHighLow
Temperature-3.2 °F10.4 °F (4:00 pm)-13 °F (1:00 am)
Dewpoint-8.2 °F6 °F (3:00 pm)-18.4 °F (1:00 am)
Humidity77.6 %87 % (3:00 pm)70 % (4:00 am)
Barometer30.47 in30.55 in (12:00 pm)30.42 in (12:00 am)
Wind Speed3.6 mph11.2 mph (6:00 pm)
Weather ElementAverage
Visibility6.6 mi
Wind DirectionESE (99 °)

Weather ElementTotal
Precipitation---
Heating Degree Days66.3 (Base 65)
Averaged from 31 records on January 31, 2013
WEATHER CONDITIONS BREAKOUT
WIND DIRECTION BREAKOUT
WEATHER BY HOUR - JANUARY 31, 2013
[ °C ]   °F
Local TimeTemperatureDewpointHumidityBarometerVisibilityWind DirectionWind SpeedGust SpeedPrecipitationEventsConditions
12:00 AM-4.0 °F-11.2 °F71 %30.42 inCalmClear
1:00 AM-13.0 °F-18.4 °F77 %30.42 inCalmClear
2:00 AM-7.6 °F-14.8 °F71 %30.42 in1.4 miSouth (170°)2.2 mphSmoke
3:00 AM-8.0 °F-10.0 °F85 %30.49 in2.0 miCalmMist
3:00 AM-9.4 °F-14.8 °F77 %30.42 in1.2 miCalmSmoke
4:00 AM-11.2 °F-18.4 °F70 %30.42 inSSE (150°)2.2 mphSmoke
5:00 AM-11.2 °F-18.4 °F70 %30.42 in1.1 miCalmSmoke
6:00 AM-13.0 °F-18.4 °F77 %30.45 in0.2 miCalmFogLight Freezing Fog
6:00 AM-11.0 °F-13.0 °F83 %30.52 in1.0 miCalmMist
7:00 AM-11.2 °F-18.4 °F70 %30.45 inCalmFogLight Freezing Fog
8:00 AM-9.4 °F-16.6 °F71 %30.45 in0.1 miCalmFogLight Freezing Fog
9:00 AM-9.0 °F-12.0 °F78 %30.53 in0.0 miSSE (160°)2.2 mphFogFog
9:00 AM-9.4 °F-16.6 °F71 %30.45 in0.6 miCalmFogLight Freezing Fog
10:00 AM-7.6 °F-14.8 °F71 %30.48 in3.7 miCalmScattered Clouds
11:00 AM-5.8 °F-11.2 °F77 %30.48 in3.7 miCalmScattered Clouds
12:00 PM-2.2 °F-7.6 °F78 %30.45 inCalmClear
12:00 PM-5.0 °F-8.0 °F82 %30.55 in31.0 miSouth (180°)2.2 mphScattered Clouds
1:00 PM3.2 °F-2.2 °F78 %30.48 in6.2 miSSE (160°)2.2 mphMostly Cloudy
2:00 PM5.0 °F1.4 °F85 %30.48 in6.2 miSouth (170°)4.5 mphMostly Cloudy
3:00 PM8.0 °F6.0 °F87 %30.53 in31.0 miSSE (160°)2.2 mphMostly Cloudy
3:00 PM8.6 °F3.2 °F79 %30.48 in6.2 miSouth (170°)6.7 mphMostly Cloudy
4:00 PM10.4 °F5.0 °F79 %30.48 in6.2 miSSE (160°)8.9 mphMostly Cloudy
5:00 PM6.8 °F3.2 °F85 %30.48 in6.2 miSSE (160°)8.9 mphMostly Cloudy
6:00 PM3.2 °F-0.4 °F85 %30.45 in6.2 miSSE (160°)11.2 mphScattered Clouds
6:00 PM5.0 °F2.0 °F80 %30.53 in12.0 miSouth (170°)4.5 mphPartly Cloudy
7:00 PM3.2 °F-2.2 °F78 %30.45 inSSE (150°)11.2 mphClear
8:00 PM1.4 °F-4.0 °F78 %30.45 inSE (140°)11.2 mphClear
9:00 PM0.0 °F-3.0 °F80 %30.52 in12.0 miSSE (160°)4.5 mphScattered Clouds
9:00 PM-0.4 °F-5.8 °F78 %30.45 inSSE (150°)11.2 mphClear
10:00 PM-2.2 °F-7.6 °F78 %30.45 inSSE (150°)8.9 mphClear
11:00 PM-2.2 °F-7.6 °F78 %30.42 inSSE (150°)6.7 mphClear
Hourly data recorded from UASP, located miles away from Pavlodar, Kazakhstan







STORIES FROM OUR PARTNERS